Weather History for LICZ - September, 2013

Change the Weather History Date:

Saturday, September 28, 2013

  Actual Average Record
Temperature  
Mean Temperature 74 °F -  
Max Temperature 88 °F 77 °F 99 °F (2012)
Min Temperature 61 °F 56 °F 51 °F (2004)
Cooling Degree Days 10    
Growing Degree Days 24 (Base 50)    
Moisture  
Dew Point 68 °F    
Average Humidity 84    
Maximum Humidity 100    
Minimum Humidity 40    
Precipitation  
Precipitation 0.00 in 0.09 in - ()
Sea Level Pressure  
Sea Level Pressure 29.93 in    
Wind  
Wind Speed 5 mph ()    
Max Wind Speed 15 mph    
Max Gust Speed -    
Visibility 6.2 miles    
Events      
Averages and records for this station are not official NWS values.
T = Trace of Precipitation, MM = Missing Value Source: Averaged Metar Reports

Daily Weather History Graph

Daily Weather History Graph

Search for Another Location

Airport or City:

Trip Planner

Search our weather history database for the weather conditions in past years. The results will help you decide how hot, cold, wet, or windy it might be!

Date:

Astronomy

Sep. 28, 2013 Rise Set
Actual Time 6:53 AM CEST 6:48 PM CEST
Civil Twilight 6:27 AM CEST 7:14 PM CEST
Nautical Twilight 5:56 AM CEST 7:44 PM CEST
Astronomical Twilight 5:26 AM CEST 8:14 PM CEST
Moon 12:31 AM CEST (9/28) 2:49 PM CEST (9/28)
Length of Visible Light 12h 46m
Length of Day
11h 54m
Last Quarter, 38% of the Moon is Illuminated
Sep 28
Last Quarter
Oct 5
New
Oct 12
First Quarter
Oct 19
Full
Oct 27
Last Quarter

Hourly Weather History & Observations

Time (CEST) Temp. Heat Index Dew Point Humidity Pressure Visibility Wind Dir Wind Speed Gust Speed Precip Events Conditions
12:55 AM 64.4 °F - 64.4 °F 100% 29.95 in - WSW 2.3 mph - N/A   Clear
1:55 AM 64.4 °F - 64.4 °F 100% 29.95 in - West 3.5 mph - N/A   Clear
2:00 AM 64 °F - 64 °F 100% 29.96 in 6 mi West 3.5 mph - -  
2:55 AM 64.4 °F - 64.4 °F 100% 29.95 in - WNW 3.5 mph - N/A   Clear
3:55 AM 64.4 °F - 64.4 °F 100% 29.95 in - WSW 3.5 mph - N/A   Clear
4:55 AM 62.6 °F - 62.6 °F 100% 29.95 in - WNW 3.5 mph - N/A   Clear
5:00 AM 63 °F - 63 °F 98% 29.96 in 6 mi WNW 3.5 mph - -  
5:55 AM 62.6 °F - 62.6 °F 100% 29.92 in - West 4.6 mph - N/A   Clear
6:55 AM 60.8 °F - 60.8 °F 100% 29.92 in - West 4.6 mph - N/A   Clear
7:55 AM 64.4 °F - 64.4 °F 100% 29.95 in - WNW 4.6 mph - N/A   Clear
8:00 AM 64 °F - 64 °F 100% 29.95 in 6 mi WNW 4.6 mph - -  
8:55 AM 68.0 °F - 68.0 °F 100% 29.95 in - WNW 4.6 mph - N/A   Clear
9:55 AM 73.4 °F - 69.8 °F 88% 29.95 in - West 3.5 mph - N/A   Clear
10:55 AM 78.8 °F - 69.8 °F 74% 29.95 in - SE 3.5 mph - N/A   Clear
11:00 AM 78 °F - 71 °F 72% 29.96 in 6 mi SE 3.5 mph - -   Clear
11:55 AM 82.4 °F 85.4 °F 68.0 °F 62% 29.95 in - NNW 2.3 mph - N/A   Clear
12:55 PM 84.2 °F 87.3 °F 68.0 °F 58% 29.95 in 6.2 mi ESE 3.5 mph - N/A   Partly Cloudy
1:55 PM 87.8 °F 90.4 °F 66.2 °F 49% 29.92 in 6.2 mi East 6.9 mph - N/A   Partly Cloudy
2:00 PM 87 °F - 66 °F 40% 29.93 in 6 mi East 6.9 mph - -   Scattered Clouds
2:55 PM 86.0 °F 91.8 °F 71.6 °F 62% 29.89 in 6.2 mi East 11.5 mph - N/A   Partly Cloudy
3:55 PM 86.0 °F 93.4 °F 73.4 °F 66% 29.89 in 6.2 mi East 15.0 mph - N/A   Partly Cloudy
4:55 PM 84.2 °F 89.6 °F 71.6 °F 66% 29.89 in 6.2 mi East 13.8 mph - N/A   Partly Cloudy
5:00 PM 84 °F - 72 °F 60% 29.90 in 6 mi East 13.8 mph - -   Scattered Clouds
5:55 PM 82.4 °F 89.5 °F 75.2 °F 79% 29.89 in 6.2 mi ENE 12.7 mph - N/A   Partly Cloudy
6:55 PM 78.8 °F - 73.4 °F 83% 29.89 in 6.2 mi ENE 10.4 mph - N/A   Partly Cloudy
7:55 PM 75.2 °F - 69.8 °F 83% 29.89 in 6.2 mi ENE 8.1 mph - N/A   Partly Cloudy
8:00 PM 75 °F - 69 °F 76% 29.91 in 6 mi ENE 8.1 mph - -   Scattered Clouds
8:55 PM 75.2 °F - 75.2 °F 100% 29.92 in - NW 2.3 mph - N/A   Clear
9:55 PM 71.6 °F - 71.6 °F 100% 29.92 in - West 4.6 mph - N/A   Clear
10:55 PM 69.8 °F - 68.0 °F 94% 29.95 in - WNW 5.8 mph - N/A   Clear
11:00 PM 70 °F - 68 °F 93% 29.95 in 7 mi WNW 5.8 mph - -  
11:55 PM 69.8 °F - 68.0 °F 94% 29.95 in - WNW 3.5 mph - N/A   Clear